SB KEPS @ AMSAT $ORB25347.1 2Line Orbital Elements 25347.AMSAT QST de W1STR AMSAT Orbital Elements for Amateur Satellites in TLE Format From Orbital Analysis Office New England Sci-Tech STEM Education Center Natick MA December 13, 2025 To all radio amateurs These element sets describe the orbits of various satellites in use by the amateur radio community. For details see: www.amsat.org/keplerian-elements-formats/ A daily update of element sets is available at: www.amsat.org/tle/daily-bulletin.txt or without bulletin text: www.amsat.org/tle/dailytle.txt AO-07 1 07530U 74089B 25346.24540321 -.00000027 00000-0 11872-3 0 9996 2 07530 101.9967 352.5079 0012372 127.5830 244.3664 12.53694162337092 UO-11 1 14781U 84021B 25346.18904116 .00003093 00000-0 32514-3 0 9999 2 14781 97.7812 309.2260 0009324 83.8026 276.4254 14.90139406229273 AO-27 1 22825U 93061C 25346.15950860 .00000214 00000-0 98606-4 0 9992 2 22825 98.7148 48.4255 0007376 291.6937 68.3460 14.30876455680257 FO-29 1 24278U 96046B 25346.25543244 -.00000010 00000-0 27759-4 0 9993 2 24278 98.5463 215.4560 0349146 221.2342 136.1944 13.53262883447886 GO-32 1 25397U 98043D 25345.93407078 .00000167 00000-0 92210-4 0 9999 2 25397 98.9920 329.1276 0002072 58.5928 301.5453 14.24376680424678 ISS 1 25544U 98067A 25346.15413386 .00014398 00000-0 26408-3 0 9999 2 25544 51.6307 145.3792 0003284 237.6977 122.3694 15.49529746542766 NO-44 1 26931U 01043C 25346.31709930 .00000317 00000-0 14944-3 0 9997 2 26931 67.0515 7.5718 0007429 270.0561 89.9690 14.31854511263698 SO-50 1 27607U 02058C 25346.26577532 .00003403 00000-0 42310-3 0 9997 2 27607 64.5547 347.0637 0072227 296.6962 62.6762 14.82387610236746 CO-55 1 27844U 03031E 25346.30898242 .00000597 00000-0 27783-3 0 9999 2 27844 98.6766 352.2176 0009802 14.7148 345.4314 14.24178684165077 CO-57 1 27848U 03031J 25346.27528807 .00000492 00000-0 23536-3 0 9992 2 27848 98.6794 352.0466 0010010 32.0653 328.1132 14.23486730164785 RS-22 1 27939U 03042A 25346.37210811 .00002553 00000-0 40562-3 0 9997 2 27939 98.3368 160.5624 0012034 136.6696 293.3654 14.72969485188048 CO-58 1 28895U 05043F 25345.89780770 .00003130 00000-0 50728-3 0 9991 2 28895 98.2721 132.9612 0015375 80.6879 279.6066 14.71894971 74194 CO-65 1 32785U 08021C 25346.17396459 .00008921 00000-0 59884-3 0 9997 2 32785 97.8085 319.2546 0007888 313.5865 46.4706 15.07033974957003 CO-66 1 32791U 08021J 25346.24750352 .00026058 00000-0 10375-2 0 9990 2 32791 97.7444 331.3757 0001251 213.6464 146.4694 15.25228311958728 RS-30 1 32953U 08025A 25346.30819069 .00000127 00000-0 84059-3 0 9992 2 32953 82.5021 111.6915 0019036 2.0522 358.0633 12.43172330796473 SRMSAT 1 37841U 11058D 25345.68821981 .00000525 00000-0 14112-3 0 9994 2 37841 19.9707 114.3146 0011730 301.8177 177.8356 14.11510990731297 ZACUBE-1 1 39417U 13066B 25346.12439433 .00007274 00000-0 59305-3 0 9994 2 39417 97.8068 302.6687 0041901 148.9140 211.4575 14.99076306652685 Delfi-N3xt 1 39428U 13066N 25346.27179905 .00011947 00000-0 11159-2 0 9993 2 39428 97.8340 262.1752 0081000 106.8549 254.1572 14.91813703646724 GOMX-1 1 39430U 13066Q 25346.28850039 .00004532 00000-0 69423-3 0 9991 2 39430 97.6592 193.4419 0129747 318.0490 41.0832 14.68582322642477 LO-74 1 39440U 13066AA 25346.26970188 .00009055 00000-0 87083-3 0 9995 2 39440 97.8702 289.9416 0057946 287.4422 72.0467 14.91965132649101 AO-73 1 39444U 13066AE 25346.12346247 .00013436 00000-0 90992-3 0 9998 2 39444 97.8058 309.3939 0040407 117.8526 242.6804 15.05937616651476 DTUSAT-2 1 40030U 14033W 25346.20635403 .00012317 00000-0 72574-3 0 9993 2 40030 98.0760 327.6427 0009370 141.1276 219.0628 15.11720814624405 EO-80 1 40032U 14033Y 25345.95229154 .00013009 00000-0 76447-3 0 9990 2 40032 98.0645 326.7688 0009917 91.5362 268.7002 15.11795326624349 LILACSAT-2 1 40908U 15049K 25346.34753544 .00022192 00000-0 47625-3 0 9998 2 40908 97.4919 11.7172 0007196 198.4531 161.6457 15.44704627566844 IO-86 1 40931U 15052B 25151.18580175 .00001241 00000-0 78118-4 0 9996 2 40931 6.0006 24.0987 0012733 338.8432 21.1169 14.78805930523159 Horyu-4 1 41340U 16012D 25346.23273051 .00069479 00000-0 11633-2 0 9996 2 41340 30.9949 313.4631 0006962 228.7655 131.2394 15.50513256541474 Lapan A3 1 41603U 16040E 25346.30278992 .00006307 00000-0 20921-3 0 9998 2 41603 97.1433 343.8749 0009701 335.7049 24.3734 15.31545408526191 CAS-2T 1 41847U 16066G 25346.20736355 .00001697 00000-0 24893-3 0 9996 2 41847 98.4037 58.9527 0343293 336.7741 21.8245 14.44129017477809 TechnoSat 1 42829U 17042E 25345.99633139 .00006697 00000-0 49479-3 0 9995 2 42829 97.4045 146.2338 0018488 15.8572 344.3229 15.03403560458562 AO-91 1 43017U 17073E 25346.18052677 .00017393 00000-0 82079-3 0 9991 2 43017 97.4953 212.3892 0159667 252.4355 105.9377 15.08846267437150 S-Net D 1 43186U 18014G 25346.29148586 .00009984 00000-0 54763-3 0 9997 2 43186 97.5481 247.3832 0007445 315.0464 45.0165 15.14343497430458 S-Net B 1 43187U 18014H 25346.29953458 .00009297 00000-0 51054-3 0 9997 2 43187 97.5486 247.3714 0007923 309.1203 50.9324 15.14319700430451 S-Net A 1 43188U 18014J 25346.29119590 .00010215 00000-0 56008-3 0 9995 2 43188 97.5495 247.5396 0007898 310.1458 49.9081 15.14349884430459 S-Net C 1 43189U 18014K 25346.30249735 .00009470 00000-0 51993-3 0 9992 2 43189 97.5511 247.5960 0009081 300.4249 59.6085 15.14314923429009 Ten-Koh 1 43677U 18084G 25346.24525081 .00005079 00000-0 39411-3 0 9997 2 43677 98.0745 165.8449 0009375 25.4687 334.6996 15.01813267388097 PO-101 1 43678U 18084H 25346.31840819 .00004788 00000-0 39570-3 0 9997 2 43678 98.1028 169.7641 0007585 47.2792 312.9067 14.99432157388202 QO-100 1 43700U 18090A 25345.49663440 .00000152 00000-0 00000-0 0 9995 2 43700 0.0183 317.8505 0001254 324.9049 2.3504 1.00274294 25796 MinXSS-2 1 43758U 18099A 25346.16838131 .00035475 00000-0 10599-2 0 9995 2 43758 97.4797 53.5247 0008994 214.3873 145.6788 15.34473213385330 AO-95 1 43770U 18099N 25346.13541327 .00017141 00000-0 75519-3 0 9998 2 43770 97.4673 42.4217 0008257 288.7031 71.3308 15.21856532384724 SNUSat 2 1 43782U 18099AA 25346.13151408 .00013224 00000-0 64750-3 0 9991 2 43782 97.4358 37.5482 0009934 224.3308 135.7132 15.18255921384611 SnugLite 1 43784U 18099AC 25346.12272203 .00017601 00000-0 76707-3 0 9997 2 43784 97.4169 37.5842 0002235 202.6340 157.4798 15.22248961384817 ITASat 1 1 43786U 18099AE 25346.10392800 .00012162 00000-0 63407-3 0 9993 2 43786 97.4325 36.4282 0011993 286.1946 73.7967 15.16053687384538 EAGLET 1 1 43790U 18099AJ 25346.10886942 .00007672 00000-0 46121-3 0 9997 2 43790 97.4524 35.6622 0010066 272.3492 87.6585 15.11101309384064 ESEO 1 43792U 18099AL 25346.08272323 .00003079 00000-0 23002-3 0 9998 2 43792 97.4222 26.2939 0011030 250.4192 109.5843 15.03470803383681 JO-97 1 43803U 18099AX 25346.16025654 .00022762 00000-0 86446-3 0 9994 2 43803 97.4425 43.9782 0005815 203.2949 156.8027 15.26813644385029 Suomi 100 1 43804U 18099AY 25346.13006854 .00019121 00000-0 80696-3 0 9999 2 43804 97.4489 42.5950 0010226 214.5546 145.5027 15.23280320384897 ISAT 1 43879U 18111D 25346.28262447 .00053023 00000-0 12481-2 0 9999 2 43879 97.5898 265.9628 0003438 255.8221 104.2644 15.41776685382172 UWE-4 1 43880U 18111E 25346.24208147 .00036070 00000-0 10815-2 0 9996 2 43880 97.5849 262.7532 0007315 280.0344 80.0073 15.34369724382006 Sparrow 1 43881U 18111F 25346.26789658 .00062433 00000-0 13605-2 0 9992 2 43881 97.6090 269.6988 0003025 334.2754 25.8342 15.44042868382293 Prox-1 1 44339U 19036A 25346.17039087 .00018370 00000-0 20613-2 0 9990 2 44339 23.9960 278.5425 0006406 36.0222 324.0707 14.85160852345586 Taurus 1 1 44530U 19059C 25346.36264064 .00011593 00000-0 19764-2 0 9999 2 44530 98.6228 135.1945 0009174 175.6547 184.4738 14.69142907331181 Duchifat 3 1 44854U 19089C 25342.89580904 .10801921 36355-5 10723-2 0 9995 2 44854 36.9163 249.0625 0006835 253.5286 106.4749 16.36980482331539 TO-108 1 44881U 19093C 25346.29653196 .00002247 00000-0 26225-3 0 9993 2 44881 97.7755 57.9375 0013403 347.8477 12.2413 14.86102963323656 FloripaSat 1 1 44885U 19093G 25346.31059032 .00010552 00000-0 82417-3 0 9992 2 44885 97.8040 74.5016 0010460 338.7104 21.3683 15.01260401324584 RS-44 1 44909U 19096E 25346.31044205 .00000029 00000-0 74579-4 0 9997 2 44909 82.5209 103.8938 0217026 221.0999 137.3580 12.79746020278446 SALSAT 1 46495U 20068K 25346.20387683 .00013095 00000-0 50668-3 0 9997 2 46495 97.8788 333.4471 0008877 231.4390 128.6053 15.26309394286805 CSS (TIANHE-1) 1 48274U 21035A 25346.13818607 .00030211 00000-0 37752-3 0 9994 2 48274 41.4684 20.3596 0008469 25.2431 334.8820 15.59138453263938 TUBIN 1 48900U 21059X 25346.28235804 .01515135 25833-5 86554-3 0 9998 2 48900 97.6650 174.7134 0004477 271.8251 88.2524 16.19067458249259 CUTE 1 49263U 21088D 25346.19713334 .00039908 00000-0 52136-3 0 9993 2 49263 97.4344 69.0219 0004296 273.3924 86.6840 15.58552690233214 TeikyoSat 4 1 49396U 21102B 25346.07149426 .00003007 00000-0 19574-3 0 9999 2 49396 97.3903 17.6959 0011273 210.1327 149.9255 15.08637672224504 Z-Sat 1 49399U 21102E 25346.24928606 .00010322 00000-0 53192-3 0 9998 2 49399 97.3585 22.2070 0017343 174.0890 186.0551 15.16432052225096 KOSEN 1 1 49402U 21102H 25346.04643716 .00012455 00000-0 52120-3 0 9996 2 49402 97.3478 26.9505 0015621 143.2235 217.0077 15.23594625225499 HO-113 1 50466U 21131B 25346.30296696 .00001176 00000-0 37870-3 0 9993 2 50466 98.5049 74.7261 0003180 308.5120 51.5783 14.41112143208197 SNUGLITE 2 1 52899U 22065F 25345.98195868 .00002316 00000-0 45268-3 0 9991 2 52899 98.1923 126.5188 0006453 248.0295 112.0222 14.63833341183600 UmKA 1 (RS40S) 1 57172U 23091G 25346.28084127 .00010746 00000-0 52763-3 0 9993 2 57172 97.5345 40.7469 0014809 55.0047 305.2574 15.18161802135626 CubeBel-2 (EU11S) 1 57175U 23091K 25346.26150640 .00020495 00000-0 84570-3 0 9991 2 57175 97.5341 43.2106 0012068 57.6330 302.6073 15.24008620135786 RS-38S 1 57189U 23091Z 25346.31344550 .00023254 00000-0 81726-3 0 9993 2 57189 97.5367 47.7099 0008803 24.6030 335.5628 15.29342740136064 SONATE-2 1 59112U 24043Q 25346.13486018 .00036853 00000-0 77931-3 0 9997 2 59112 97.5324 122.3631 0008969 164.2134 195.9396 15.45021217 98884 MO-122 1 60209U 24125G 25346.14132076 .00041842 00000-0 84769-3 0 9991 2 60209 97.2532 196.5131 0014071 180.3109 179.8135 15.46185326 80517 GRBBeta 1 60237U 24128C 25345.82107664 .00007872 00000-0 55100-3 0 9996 2 60237 61.9894 152.7698 0056311 96.4497 264.3011 15.04737572 78058 Curium One 1 60242U 24128H 25345.47031628 .00018328 00000-0 11268-2 0 9993 2 60242 61.9788 148.9046 0055993 93.3182 267.4320 15.08853494 78099 ROBUSTA-3A 1 60243U 24128J 25346.00347834 .00011275 00000-0 71209-3 0 9999 2 60243 61.9861 148.5558 0056069 90.9053 269.8465 15.08196546 78152 CatSat 1 60246U 24125J 25346.15516425 .00047351 00000-0 11415-2 0 9995 2 60246 97.2316 193.5457 0034014 146.3637 213.9779 15.40475906 78435 HYPERVIEW-1G (RS66S) 1 61772U 24199AP 25346.29024339 .00056133 00000-0 10763-2 0 9997 2 61772 97.3212 215.7191 0007937 239.0593 120.9878 15.47791204105542 AO-123 1 61781U 24199AY 25346.28072874 .00016148 00000-0 52439-3 0 9992 2 61781 97.3252 211.7356 0012806 257.5911 102.3898 15.31935066105270 ZIMSAT 2 1 61783U 24199BA 25345.64978112 .00270699 00000-0 19531-2 0 9991 2 61783 97.3091 218.5577 0003430 195.3468 164.7693 15.72731497108839 HADES-R (SO-124) 1 62690U 25009CK 25346.18920265 .00189021 00000-0 24024-2 0 9997 2 62690 97.3872 68.7875 0001081 250.2451 109.8689 15.58745968 50690 HYDRA-T 1 62692U 25009CM 25346.16832093 .00216490 00000-0 25615-2 0 9996 2 62692 97.3876 68.9670 0001237 264.4086 95.7030 15.60547394 50706 JINJUSat 1B 1 63210U 25052A 25346.19561982 .00024640 00000-0 93941-3 0 9992 2 63210 97.4198 238.3542 0005474 48.0357 312.1347 15.26669065 41503 NUSHSAT 1 1 63211U 25052B 25346.25682752 .00028585 00000-0 10547-2 0 9991 2 63211 97.4177 238.5365 0005585 51.5343 308.6396 15.27721611 41526 TEVEL2-4 1 63213U 25052D 25345.66771444 .00025867 00000-0 97575-3 0 9991 2 63213 97.4104 237.5036 0005151 64.7984 295.3789 15.27014963 41420 TEVEL2-5 1 63214U 25052E 25346.26290644 .00026380 00000-0 99610-3 0 9990 2 63214 97.4100 238.0826 0005033 64.7875 295.3885 15.26976849 41514 TEVEL2-6 1 63215U 25052F 25346.20466426 .00026109 00000-0 98745-3 0 9995 2 63215 97.4105 238.0131 0005169 64.9944 295.1831 15.26925922 41502 TEVEL2-1 1 63217U 25052H 25346.24722780 .00025986 00000-0 99242-3 0 9994 2 63217 97.4079 237.8669 0005463 73.2578 286.9260 15.26601749 41502 TEVEL2-3 1 63218U 25052J 25346.18089007 .00026189 00000-0 99954-3 0 9992 2 63218 97.4082 237.8067 0005361 74.1472 286.0358 15.26621388 41497 TEVEL2-2 1 63219U 25052K 25346.24799747 .00026116 00000-0 99734-3 0 9995 2 63219 97.4082 237.8678 0005409 73.3986 286.7847 15.26603033 41509 TEVEL2-9 1 63237U 25052AD 25345.42320901 .00031299 00000-0 12492-2 0 9999 2 63237 97.4135 236.7585 0009286 85.5859 274.6440 15.25065290 41347 TEVEL2-7 1 63238U 25052AE 25345.43699015 .00030676 00000-0 12300-2 0 9992 2 63238 97.4144 236.7465 0009411 85.6220 274.6093 15.24915144 41343 TEVEL2-8 1 63239U 25052AF 25346.23004420 .00023035 00000-0 92483-3 0 9994 2 63239 97.4141 237.5163 0009500 83.8535 276.3785 15.24928406 41468 HYDRA-W 1 63490U 25052BL 25345.66319095 .00086170 00000-0 20546-2 0 9995 2 63490 97.4064 239.4275 0011651 74.8996 285.3538 15.41179517 41553 HADES-ICM (SO-125) 1 63492U 25052BN 25346.17666786 .00088668 00000-0 22444-2 0 9999 2 63492 97.4073 239.6826 0011665 75.9614 284.2927 15.39348021 41615 Dragonfly 1 65729U 98067XH 25345.97553572 .00191153 00000-0 14274-2 0 9991 2 65729 51.6238 139.6768 0006728 272.7665 87.2563 15.71570854 13046 RSP-03 1 65732U 98067XL 25345.46479526 .00197326 00000-0 16947-2 0 9992 2 65732 51.6260 143.0256 0005826 242.1359 117.9048 15.68184189 12962 GHS-01 1 65733U 98067XM 25345.73819417 .00233700 00000-0 15475-2 0 9992 2 65733 51.6266 140.3500 0007045 274.7166 85.3028 15.74255219 13027 BOTAN 1 65942U 98067XP 25346.14280537 .00130896 00000-0 14132-2 0 9996 2 65942 51.6278 142.3097 0003211 233.7514 126.3183 15.62701818 9771 BEE-1000 1 66650U 25274A 25346.28287228 .00003219 00000-0 32557-3 0 9992 2 66650 97.7386 273.4789 0010367 253.1002 106.9080 14.91659686 2332 SPIRONE 1 66657U 25274H 25346.27497077 .00005202 00000-0 51223-3 0 9998 2 66657 97.7381 273.4886 0010736 277.7668 82.2332 14.92448984 2336 K-HERO 1 66660U 25274L 25346.26964583 .00004432 00000-0 43164-3 0 9991 2 66660 97.7386 273.4968 0012690 282.6220 77.3580 14.92954618 2332 SNUGLITE-III DURI 1 66661U 25274M 25346.26808748 .00004078 00000-0 39614-3 0 9993 2 66661 97.7383 273.4984 0013390 283.7160 76.2569 14.93093703 2336 SilverSat 1 66909U 98067XV 25345.82414535 .00082864 00000-0 13718-2 0 9991 2 66909 51.6300 146.9260 0004556 222.0234 138.0406 15.51450033 1471 CEVROSAT1 1 98526U 25248E 25313.13142326 .00000000 00000-0 19360-3 0 02 2 98526 45.4084 218.4764 0001315 254.8982 242.1062 15.17981583 02 /EX